AirNav   Air Wisconsin pilot careers
 
 982 users online  

1QK Gove County Airport
Quinter, Kansas, USA


FAA INFORMATION EFFECTIVE 18 JULY 2019

Location

FAA Identifier: 1QK
Lat/Long: 39-02-18.9240N / 100-14-01.9980W
39-02.315400N / 100-14.033300W
39.0385900 / -100.2338883
(estimated)
Elevation: 2637.1 ft. / 804 m (estimated)
Variation: 05E (2020)
From city: 2 miles S of QUINTER, KS
Time zone: UTC -5 (UTC -6 during Standard Time)
Zip code: 67751

Airport Operations

Airport use: Open to the public
Activation date: 03/2018
Control tower: no
ARTCC: DENVER CENTER
FSS: WICHITA FLIGHT SERVICE STATION
Attendance: 
Wind indicator: no
Segmented circle: no
Lights: ACTVT MIRL RWY 17/35 - CTAF.
Beacon: white-green (lighted land airport)
Operates sunset to sunrise.

Airport Communications

CTAF/UNICOM: 122.975

Nearby radio navigation aids

VOR radial/distance  VOR name  Freq  Var
HLCr174/13.2HILL CITY VORTAC113.7008E

 
NDB name  Hdg/Dist  Freq  Var  ID
OAKLEY091/27.438008EOEL --- . .-..

Airport Services

Runway Information

Runway 17/35

Dimensions: 4000 x 60 ft. / 1219 x 18 m
Surface: concrete, in excellent condition
Weight bearing capacity: 
Single wheel: 30.0
Double wheel: 30.0
Runway edge lights: medium intensity
RUNWAY 17  RUNWAY 35
Latitude: 39-02.644828N39-01.985975N
Longitude: 100-14.030935W100-14.035665W
Elevation: 2637.1 ft.2613.1 ft.
Traffic pattern: rightleft
Markings: nonprecision, in good conditionnonprecision, in good condition
Touchdown point: yes, no lightsyes, no lights

Airport Ownership and Management from official FAA records

Ownership: Privately-owned
Owner: GOVE COUNTY HEALTHCARE FOUNDATION
PO BOX 37
QUINTER, KS 67752
Phone 785-754-3740
Manager: PATRICK RICHMEIER
513 LINCOLN ST
QUINTER, KS 67752
Phone 785-299-0219

Additional Remarks

FOR CD CTC DENVER ARTCC AT 303-651-4257.

Instrument Procedures

There are no published instrument procedures at 1QK.

Some nearby airports with instrument procedures:

0H1 - Trego Wakeeney Airport (16 nm E)
KOEL - Oakley Municipal Airport (27 nm W)
KHLC - Hill City Municipal Airport (28 nm NE)
KCBK - Shalz Field Airport (44 nm NW)
KTQK - Scott City Municipal Airport (45 nm SW)
 
Loc | Ops | Rwys | IFR | FBO | Links
Com | Nav | Svcs | Stats | Notes

AirBoss

 
Aerial photo
WARNING: Photo may not be current or correct
Aerial photo of 1QK (Gove County Airport)
Photo by Patrick Richmeier
Photo taken 15-Sep-2018
looking north.

Do you have a better or more recent aerial photo of Gove County Airport that you would like to share? If so, please send us your photo.

 
Airport distance calculator
Flying to Gove County Airport? Find the distance to fly.

From to 1QK

Sunrise and sunset
Times for 17-Jul-2019
 Local
(UTC-5)
 Zulu
(UTC)
Morning civil twilight05:5910:59
Sunrise06:3011:30
Sunset21:0402:04
Evening civil twilight21:3502:35

Current date and time
Zulu (UTC)  18-Jul-2019 03:11:14
Local (UTC-5)  17-Jul-2019 22:11:14
 
METAR
KHLC 
27nm NE 
180253Z AUTO 18011G21KT 10SM CLR 33/18 A2975 RMK AO2 LTG DSNT SW AND W SLP043 T03330183 53006
KOEL 
27nm W 
180255Z AUTO 21007KT 10SM SCT080 SCT085 SCT110 23/19 A2987 RMK AO1 T02320185
KCBK 
45nm NW 
180255Z AUTO 07008G25KT 10SM SCT040 SCT050 BKN110 29/07 A2983 RMK AO2 PWINO
KTQK 
45nm SW 
180255Z AUTO 18009KT 10SM CLR 24/19 A2987 RMK AO1 P0001 T02350189
KHYS 
47nm E 
180256Z AUTO 16010KT 10SM CLR 31/18 A2978 RMK AO2 SLP060 T03110183 53008
KOIN 
50nm N 
180255Z AUTO 18005KT 10SM CLR 29/20 A2980 RMK AO1 T02910198
TAF
KHYS 
47nm E 
171720Z 1718/1818 19022G32KT P6SM SKC FM180300 18015G25KT P6SM VCTS BKN100CB FM180600 19009KT P6SM BKN100 WS020/22040KT FM181200 19009KT P6SM SKC FM181500 20015G25KT P6SM SKC
NOTAMs
Click for the latest NOTAMs
NOTAMs are issued by the DoD/FAA and will open in a separate window not controlled by AirNav.

 

 
 

Would you like to see your business listed on this page?

 If your business provides an interesting product or service to pilots, flight crews, aircraft, or users of the Gove County Airport, you should consider listing it here.  To start the listing process, click on the button below
 
Add a business
 

Other Pages about Gove County Airport

Update a link
 
Copyright © AirNav, LLC. All rights reserved. Privacy Policy  Contact